Time,TemperatureF,DewpointF,PressureIn,WindDirection,WindDirectionDegrees,WindSpeedMPH,WindSpeedGustMPH,Humidity,HourlyPrecipIn,Conditions,Clouds,dailyrainin,SolarRadiationWatts/m^2,SoftwareType,DateUTC
2013-07-04 00:03:00,64.6,-99.9,30.09,WSW,243,0.0,0.0,0,0.00,,,0.02,0,Wunderground v.1.15,2013-07-04 04:03:00,
2013-07-04 00:33:00,64.4,-99.9,30.09,WSW,243,1.0,1.0,0,0.00,,,0.03,0,Wunderground v.1.15,2013-07-04 04:33:00,
2013-07-04 01:03:00,64.4,-99.9,30.09,WSW,244,0.0,0.0,0,0.00,,,0.03,0,Wunderground v.1.15,2013-07-04 05:03:00,
2013-07-04 01:33:00,64.2,-99.9,30.09,WSW,243,1.0,1.0,0,0.00,,,0.03,0,Wunderground v.1.15,2013-07-04 05:33:00,
2013-07-04 02:03:00,64.1,-99.9,30.09,WSW,243,0.0,0.0,0,0.00,,,0.03,0,Wunderground v.1.15,2013-07-04 06:03:00,
2013-07-04 02:33:00,64.1,-99.9,30.09,WSW,244,0.0,0.0,0,0.00,,,0.03,0,Wunderground v.1.15,2013-07-04 06:33:00,
2013-07-04 03:03:00,64.0,-99.9,30.08,WSW,243,0.0,0.0,0,0.00,,,0.03,0,Wunderground v.1.15,2013-07-04 07:03:00,
2013-07-04 03:33:00,63.8,-99.9,30.08,WSW,243,0.0,0.0,0,0.00,,,0.03,0,Wunderground v.1.15,2013-07-04 07:33:00,
2013-07-04 04:03:00,63.6,-99.9,30.08,WSW,243,0.0,0.0,0,0.00,,,0.03,0,Wunderground v.1.15,2013-07-04 08:03:00,
2013-07-04 04:33:00,63.4,-99.9,30.09,WSW,243,0.0,0.0,0,0.00,,,0.03,0,Wunderground v.1.15,2013-07-04 08:33:00,
2013-07-04 05:03:00,63.4,-99.9,30.09,WSW,243,0.0,0.0,0,0.00,,,0.03,5,Wunderground v.1.15,2013-07-04 09:03:00,
2013-07-04 05:33:00,63.5,-99.9,30.09,WSW,243,0.0,0.0,0,0.00,,,0.03,18,Wunderground v.1.15,2013-07-04 09:33:00,
2013-07-04 06:03:00,65.6,-99.9,30.10,WSW,243,0.0,0.0,0,0.00,,,0.03,81,Wunderground v.1.15,2013-07-04 10:03:00,
2013-07-04 06:33:00,68.1,-99.9,30.11,WSW,243,0.0,2.0,0,0.00,,,0.03,186,Wunderground v.1.15,2013-07-04 10:33:00,
2013-07-04 07:03:00,71.5,-99.9,30.12,WSW,243,0.0,0.0,0,0.00,,,0.03,279,Wunderground v.1.15,2013-07-04 11:03:00,
2013-07-04 07:33:00,75.0,-99.9,30.12,WSW,243,0.0,2.0,0,0.00,,,0.03,374,Wunderground v.1.15,2013-07-04 11:33:00,
2013-07-04 08:03:00,78.4,43.5,30.12,WSW,257,2.0,2.0,29,0.00,,,0.04,462,Wunderground v.1.15,2013-07-04 12:03:00,
2013-07-04 08:33:00,83.0,67.2,30.12,WSW,257,2.0,2.0,59,0.00,,,0.04,547,Wunderground v.1.15,2013-07-04 12:33:00,
2013-07-04 09:03:00,84.5,68.1,30.12,West,259,0.0,0.0,58,0.00,,,0.04,631,Wunderground v.1.15,2013-07-04 13:03:00,
2013-07-04 09:33:00,84.0,67.6,30.11,West,266,2.0,5.0,58,0.00,,,0.04,698,Wunderground v.1.15,2013-07-04 13:33:00,
2013-07-04 10:03:00,83.7,66.8,30.11,North,355,4.0,4.0,57,0.00,,,0.04,768,Wunderground v.1.15,2013-07-04 14:03:00,
2013-07-04 10:33:00,84.9,68.5,30.11,NE,35,3.0,3.0,58,0.00,,,0.04,812,Wunderground v.1.15,2013-07-04 14:33:00,
2013-07-04 11:03:00,86.3,68.8,30.10,NE,35,5.0,5.0,56,0.00,,,0.04,846,Wunderground v.1.15,2013-07-04 15:03:00,
2013-07-04 11:33:00,87.3,68.6,30.10,NNW,327,3.0,3.0,54,0.00,,,0.05,851,Wunderground v.1.15,2013-07-04 15:33:00,
2013-07-04 12:03:00,89.0,69.6,30.09,WNW,288,3.0,3.0,53,0.00,,,0.00,396,Wunderground v.1.15,2013-07-04 16:03:00,
2013-07-04 12:33:00,89.6,68.5,30.08,NW,311,2.0,2.0,50,0.00,,,0.00,874,Wunderground v.1.15,2013-07-04 16:33:00,
2013-07-04 13:03:00,87.5,69.9,30.08,WSW,245,8.0,8.0,56,0.00,,,0.00,907,Wunderground v.1.15,2013-07-04 17:03:00,
2013-07-04 13:33:00,86.3,68.8,30.07,WSW,251,10.0,10.0,56,0.00,,,0.01,151,Wunderground v.1.15,2013-07-04 17:33:00,
2013-07-04 14:03:00,85.3,68.3,30.06,West,263,10.0,10.0,57,0.00,,,0.01,95,Wunderground v.1.15,2013-07-04 18:03:00,
2013-07-04 14:33:00,85.6,68.1,30.06,West,270,11.0,11.0,56,0.00,,,0.01,366,Wunderground v.1.15,2013-07-04 18:33:00,
2013-07-04 15:03:00,85.8,68.8,30.05,WSW,243,11.0,12.0,57,0.00,,,0.01,698,Wunderground v.1.15,2013-07-04 19:03:00,
2013-07-04 15:33:00,87.8,70.1,30.05,WSW,253,9.0,10.0,56,0.00,,,0.01,622,Wunderground v.1.15,2013-07-04 19:33:00,
2013-07-04 16:03:00,88.6,70.4,30.04,WSW,244,8.0,8.0,55,0.00,,,0.01,580,Wunderground v.1.15,2013-07-04 20:03:00,
2013-07-04 16:33:00,87.8,69.6,30.04,WSW,246,9.0,10.0,55,0.00,,,0.01,508,Wunderground v.1.15,2013-07-04 20:33:00,
2013-07-04 17:03:00,83.7,65.8,30.02,West,261,10.0,10.0,55,0.00,,,0.01,427,Wunderground v.1.15,2013-07-04 21:03:00,
2013-07-04 17:33:00,82.1,54.7,30.02,West,270,9.0,10.0,39,0.00,,,0.01,346,Wunderground v.1.15,2013-07-04 21:33:00,
2013-07-04 18:03:00,79.4,12.9,30.03,WSW,250,8.0,8.0,8,0.00,,,0.01,44,Wunderground v.1.15,2013-07-04 22:03:00,
2013-07-04 18:33:00,75.3,-99.9,30.02,West,259,6.0,8.0,0,0.00,,,0.01,58,Wunderground v.1.15,2013-07-04 22:33:00,
2013-07-04 19:03:00,72.9,-99.9,30.03,West,263,5.0,5.0,0,0.00,,,0.01,30,Wunderground v.1.15,2013-07-04 23:03:00,
2013-07-04 19:33:00,71.5,-99.9,30.03,WSW,253,8.0,8.0,0,0.00,,,0.01,14,Wunderground v.1.15,2013-07-04 23:33:00,
2013-07-04 20:03:00,71.7,-99.9,30.01,SW,222,4.0,4.0,0,0.00,,,0.01,21,Wunderground v.1.15,2013-07-05 00:03:00,
2013-07-04 20:33:00,70.6,-99.9,30.01,West,267,5.0,5.0,0,0.00,,,0.01,0,Wunderground v.1.15,2013-07-05 00:33:00,
2013-07-04 21:03:00,70.5,-99.9,30.01,West,267,1.0,1.0,0,0.00,,,0.02,0,Wunderground v.1.15,2013-07-05 01:03:00,
2013-07-04 21:33:00,70.8,-99.9,30.01,West,266,0.0,0.0,0,0.00,,,0.02,0,Wunderground v.1.15,2013-07-05 01:33:00,
2013-07-04 22:03:00,70.6,-99.9,30.02,West,267,0.0,0.0,0,0.00,,,0.02,0,Wunderground v.1.15,2013-07-05 02:03:00,
2013-07-04 22:33:00,70.0,-99.9,30.01,West,266,1.0,2.0,0,0.00,,,0.02,0,Wunderground v.1.15,2013-07-05 02:33:00,
2013-07-04 23:03:00,69.9,-99.9,30.01,West,267,0.0,0.0,0,0.00,,,0.02,0,Wunderground v.1.15,2013-07-05 03:03:00,
2013-07-04 23:33:00,69.6,-99.9,30.01,West,267,1.0,2.0,0,0.00,,,0.02,0,Wunderground v.1.15,2013-07-05 03:33:00,